Regional Weather Roundup
Issued by NWS State College, PA

Home | Current Version | Previous Version | Graphics & Text | Print | Product List | Glossary Off
Versions: 1 2 3 4 5 6 7 8 9 10 11 12 13 14 15 16 17 18 19 20 21 22 23 24 25 26 27 28 29 30 31 32 33 34 35 36 37 38 39 40 41 42 43 44 45 46 47 48 49 50

000
ASUS41 KCTP 250710
RWRCTP

REGIONAL WEATHER ROUNDUP
NATIONAL WEATHER SERVICE STATE COLLEGE PA
300 AM EDT WED APR 25 2018

Note: "fair" indicates few or no clouds below 12,000 feet with no
significant weather and/or obstructions to visibility.

* = STATION THAT DOES NOT REPORT PRECIPITATION /E.G. RAIN...SNOW...ETC/
    THUNDER OR FOG.

PAZ002>004-007>009-013>016-020>023-029>032-250800-
WESTERN PENNSYLVANIA

CITY           SKY/WX    TMP DP  RH WIND       PRES   REMARKS
ERIE           CLOUDY    48  46  93 NE6       29.91F
MEADVILLE      CLOUDY    49  48  97 VRB5      29.89F
FRANKLIN*      CLOUDY    48  46  93 E8        29.90F
NEW CASTLE     CLOUDY    50  50 100 E5        29.89F
BEAVER COUNTY  NOT AVBL
BUTLER*        CLOUDY    50  48  93 E8        29.88F
PITTSBURGH INT CLOUDY    50  49  96 E6        29.86F
PITTSBURGH     CLOUDY    50  49  96 E3        29.86F
INDIANA*       CLOUDY    50  48  93 VRB7G13   29.92
LATROBE        CLOUDY    54  48  82 E12       29.87F
WASHINGTON CO* CLOUDY    50  49  96 NE3       29.88F
$$

PAZ004>006-010>012-017>019-024>028-033>037-041-042-045-046-049>053-250800-
CENTRAL PENNSYLVANIA

CITY           SKY/WX    TMP DP  RH WIND       PRES   REMARKS
BRADFORD       CLOUDY    47  45  93 SE12      29.92F
DUBOIS         CLOUDY    48  46  93 E10       29.90F
CLEARFIELD     CLOUDY    48  47  96 NE7       29.92F FOG
JOHNSTOWN      CLOUDY    47  45  93 E8        29.88F FOG
ALTOONA        CLOUDY    50  47  89 NE7       29.91F
STATE COLLEGE  RAIN      49  47  95 NE6       29.94F
WILLIAMSPORT   LGT RAIN  50  48  93 E5        29.97F
SELINSGROVE    LGT RAIN  50  48  93 NE7       29.96F FOG
FT INDIANTOWN  NOT AVBL
CAPITAL CITY   LGT RAIN  53  50  89 E6        29.92F FOG
HARRISBURG     LGT RAIN  52  50  93 E5        29.91F FOG
YORK           LGT RAIN  51  51 100 E6        29.90F FOG
$$

PAZ038>040-043-044-047-048-054-055-060>062-067>071-250800-
EASTERN PENNSYLVANIA

CITY           SKY/WX    TMP DP  RH WIND       PRES   REMARKS
SCRANTON       RAIN      49  48  97 NE9       29.99F FOG
MOUNT POCONO   LGT RAIN  46  46 100 E10       29.99F VSB 3/4
ALLENTOWN      LGT RAIN  54  50  86 E10       29.98F FOG
QUAKERTOWN*    CLOUDY    52  52 100 VRB7      29.97F FOG
READING        HVY RAIN  54  54 100 E7        29.93F
LANCASTER      RAIN      53  52  96 E9        29.91F FOG
COATESVILLE    LGT RAIN  54  52  94 E14G22    29.94F
POTTSTOWN      HVY RAIN  52  52 100 E7        29.96F FOG
BLUE BELL      CLOUDY    52  52 100 E10       29.97F
DOYLESTOWN     LGT RAIN  53  52  96 VRB3      29.97F FOG
WILLOW GROVE   NOT AVBL
NORTH PHILA    LGT RAIN  56  53  90 E14       29.98F FOG
PHILADELPHIA   LGT RAIN  54  53  97 E13       29.95F FOG
$$




USA.gov is the U.S. government's official web portal to all federal, state and local government web resources and services.